www.pogodaiklimat.ru

Погода и климат >> Архив погоды >> Мальдивы >> Gan


ПОГОДА в Gan

  • Прогноз погоды в Gan
  • Монитор погоды в Gan
  • Климат города

АРХИВ ПОГОДЫ в Gan

Время (UTC), дата Ветер
(напр.,м/с)
 
Видим.   Явления Облачность Т
(С)
Тd
(С)
f
(%)
Тe
(С)
Тes
(С)
Комфортность P
(гПа)
Po
(гПа)
Тmin
(С)
Tmax
(С)
R
(мм)
R24
(мм)
S
(см)
21 10.10 С 2 10 км 6/3 540 м
[Cu med, cong Ci sp]
+28.2 +25.4 85 +41 +41 опасность
перегрева
1009.4 1009.2
03 11.10 С 3 12 км 8/4 540 м
[Cu med, cong Ci sp]
+29.9 +26.1 80 +45 +47 опасность
перегрева
1011.6 1011.4 +26.8
06 11.10 С 4 12 км 6/4 540 м
[Cu med, cong Ac trans Ci fib]
+30.5 +24.8 72 +44 +51 опасность
перегрева
1011.4 1011.2
09 11.10 С 3 8000 м слабый ливневой дождь 6/5 500 м
[Cb cap Ci sp]
+29.6 +25.4 78 +43 +50 опасность
перегрева
1009.4 1009.2
12 11.10 С 3 10 км {ливн. осадки} 6/3 540 м
[Cu med, cong Ac cuf Ci sp]
+29.3 +24.6 76 +42 +43 опасность
перегрева
1009.4 1009.2 +31.8 0.0
15 11.10 С 2 10 км 6/3 540 м
[Cu med, cong Ci sp]
+28.4 +25.0 82 +41 +41 опасность
перегрева
1011.6 1011.4
18 11.10 С 2 10 км 6/3 540 м
[Cu med, cong Ci sp]
+28.0 +24.9 83 +40 +40 очень
душно
1012.4 1012.2
21 11.10 С 2 10 км 6/3 540 м
[Cu med, cong Ci sp]
+28.2 +24.3 79 +39 +39 очень
душно
1010.5 1010.3
00 12.10 С 2 10 км 5/3 540 м
[Cu med, cong Ac cuf Ci sp]
+27.6 +24.1 81 +38 +38 очень
душно
1010.7 1010.5
03 12.10 С 2 12 км 5/3 540 м
[Cu med, cong Ci sp]
+29.2 +24.6 76 +41 +45 опасность
перегрева
1012.2 1012.0 +26.6
06 12.10 С 2 12 км 5/3 540 м
[Cu med, cong Ci fib]
+30.3 +24.4 71 +43 +56 опасность
перегрева
1012.2 1012.0
09 12.10 С 2 12 км 5/3 540 м
[Cu med, cong Ci fib]
+30.4 +24.1 69 +42 +54 опасность
перегрева
1010.1 1009.9
15 12.10 штиль 0 10 км 4/3 540 м
[Cu med, cong Ci fib]
+27.2 +24.0 83 +38 +38 очень
душно
1012.3 1012.1
18 12.10 штиль 0 10 км 4/3 540 м
[Cu med, cong Ci fib]
+25.6 +24.0 91 +35 +35 очень
душно
1013.1 1012.9
21 12.10 нст 1 10 км 4/3 540 м
[Cu med, cong Ci fib]
+25.5 +23.8 90 +35 +35 очень
душно
1011.8 1011.6
00 13.10 нст 1 10 км 4/3 540 м
[Cu med, cong Ci fib]
+25.6 +23.9 90 +35 +35 очень
душно
1011.8 1011.6
03 13.10 Ю 3 10 км 6/4 540 м
[Cb cap Ci sp]
+29.0 +24.1 75 +40 +43 очень
душно
1013.4 1013.2 +24.9
06 13.10 Ю 3 10 км 4/1 570 м
[Cu hum Ci fib]
+30.2 +24.5 72 +43 +58 опасность
перегрева
1012.8 1012.6
09 13.10 ЮЗ 3 12 км 5/3 540 м
[Cu hum Ci fib]
+30.7 +24.7 70 +43 +53 опасность
перегрева
1010.9 1010.7
12 13.10 ЮЗ 2 12 км 6/5 500 м
[Cb cap Ci fib]
+30.3 +24.4 71 +43 +44 опасность
перегрева
1010.8 1010.6 +31.2
18 13.10 нст 1 10 км {ливн. осадки} 8/3 540 м
[Cu med, cong Ci sp]
+26.6 +24.3 87 +37 +37 очень
душно
1013.9 1013.7 0.0
21 13.10 ЮВ 2 10 км 6/3 540 м
[Cu med, cong Ci sp]
+26.5 +24.9 91 +38 +38 очень
душно
1012.0 1011.8
00 14.10 штиль 0 10 км 6/3 540 м
[Cu med, cong Ci sp]
+25.2 +24.2 94 +35 +35 очень
душно
1012.0 1011.8 0.0
03 14.10 Ю 2 10 км 6/4 500 м
[Cb cap Ac trans Ci sp]
+29.4 +24.8 76 +42 +44 опасность
перегрева
1014.0 1013.8 +24.4
06 14.10 ЮЗ 2 10 км 5/4 500 м
[Cb cap Ci fib]
+30.4 +25.0 73 +44 +55 опасность
перегрева
1013.5 1013.3
09 14.10 нст 1 10 км 5/3 500 м
[Cu med, cong Ci fib]
+30.0 +24.6 73 +43 +56 опасность
перегрева
1010.9 1010.7
12 14.10 нст 1 12 км 4/3 540 м
[Cu med, cong Ci fib]
+29.0 +24.9 79 +42 +43 опасность
перегрева
1010.7 1010.5 +31.1
15 14.10 нст 1 12 км 4/3 540 м
[Cu med, cong Ci fib]
+26.8 +24.9 89 +38 +38 очень
душно
1013.0 1012.8
18 14.10 нст 1 12 км 3/3 540 м
[Cu med, cong Ci fib]
+26.0 +24.4 91 +36 +36 очень
душно
1014.0 1013.8
21 14.10 нст 1 12 км 4/3 540 м
[Cu hum Ci fib]
+25.6 +24.2 92 +35 +35 очень
душно
1012.0 1011.8
00 15.10 СВ 2 10 км 6/3 540 м
[Cu med, cong Ci fib]
+25.4 +23.9 91 +35 +35 очень
душно
1011.7 1011.5
03 15.10 нст 1 10 км 5/3 540 м
[Cu med, cong Ci fib]
+29.3 +24.6 76 +42 +45 опасность
перегрева
1013.5 1013.3 +24.8
06 15.10 СВ 2 10 км 4/3 540 м
[Cu med, cong Ci fib]
+30.9 +24.9 70 +44 +58 опасность
перегрева
1012.9 1012.7
09 15.10 нст 1 15 км 5/5 500 м
[Cb calv Ci fib]
+29.8 +24.4 73 +42 +52 опасность
перегрева
1010.9 1010.7
12 15.10 нст 1 15 км 4/3 540 м
[Cu med, cong Ci fib]
+30.0 +24.0 70 +41 +43 опасность
перегрева
1010.9 1010.7 +31.4
15 15.10 штиль 0 15 км 3/1 540 м
[Cu hum Ci fib]
+26.9 +24.2 85 +37 +37 очень
душно
1013.5 1013.3
18 15.10 штиль 0 15 км 3/1 540 м
[Cu hum Ci fib]
+26.0 +24.3 90 +36 +36 очень
душно
1014.3 1014.1
21 15.10 нст 1 12 км 3/1 540 м
[Cu hum Ci fib]
+25.4 +24.1 93 +35 +35 очень
душно
1012.9 1012.7
00 16.10 нст 1 12 км 4/1 540 м
[Cu hum Ci fib]
+25.5 +23.9 91 +35 +35 очень
душно
1012.7 1012.5
03 16.10 нст 1 15 км 4/4 540 м
[Cu med, cong Ci fib]
+29.0 +24.7 78 +41 +45 опасность
перегрева
1014.4 1014.2 +24.8
06 16.10 ЮЗ 2 15 км 4/4 540 м
[Cu med, cong Ci fib]
+30.2 +24.8 73 +43 +55 опасность
перегрева
1013.6 1013.4
09 16.10 З 3 15 км 4/3 540 м
[Cu med, cong Ci fib]
+30.6 +24.3 69 1012.0 1011.8
12 16.10 З 2 15 км 4/3 540 м
[Cu med, cong Ci fib]
+30.2 +24.2 70 +42 +43 опасность
перегрева
1011.4 1011.2 +31.4
15 16.10 нст 1 12 км 5/4 540 м
[Cb cap Ci fib]
+28.0 +25.2 85 +41 +41 опасность
перегрева
1013.5 1013.3
18 16.10 нст 1 10 км 5/5 500 м
[Cb cap Ci fib]
+27.9 +24.9 84 +40 +40 очень
душно
1014.5 1014.3
21 16.10 штиль 0 12 км 4/3 540 м
[Cu hum Ci fib]
+26.4 +25.0 92 +38 +38 очень
душно
1012.4 1012.2
00 17.10 штиль 0 12 км 4/3 540 м
[Cu med, cong Ci fib]
+25.5 +24.5 94 +36 +36 очень
душно
1012.3 1012.1
03 17.10 нст 1 10 км 5/4 540 м
[Cb calv Ci fib]
+29.3 +24.9 77 +42 +45 опасность
перегрева
1014.4 1014.2 +24.8
06 17.10 нст 1 10 км 9/4 540 м
[Cu med, cong Ci fib]
+29.3 +24.6 76 +42 +53 опасность
перегрева
1013.9 1013.7
09 17.10 Ю 2 12 км 9/3 540 м
[Cu med, cong Ci fib]
+30.4 +24.1 69 +42 +52 опасность
перегрева
1010.7 1010.5
12 17.10 В 2 12 км 8/4 500 м
[Cb cap Ci fib]
+30.0 +24.9 74 +43 +44 опасность
перегрева
1011.0 1010.8 +31.5

 

Местоположение метеостанции Gan (Мальдивы): широта -0.68 долгота 73.15 высота над уровнем моря 2 м.

В архиве по умолчанию представлена погода в Gan за последнюю неделю. Архивные данные за месяц целиком и за предыдущие месяцы, начиная с января 2011 года, Вы можете получить, выбрав интересующий диапазон дат из раскрывающегося списка и нажав кнопку "Ввод!".


*Определитесь, кто Вы:
робот инопланетянин человек

Внимание! Время в таблицах - всемирное. Для получения местного времени необходимо прибавить поправку, которая в Gan равна 5 ч.

Смотрите также архив погоды в соседних городах и на ближайших метеорологических станциях:

Погода в Kaadedhdhoo (Мальдивы) (130 км)
Погода в Kadhdhoo (Мальдивы) (287 км)
Погода в Male (Мальдивы) (544 км)
Погода в Hanimaadhoo (Мальдивы) (824 км)
Погода в Minicoy (Lakshadweep, Индия) (999 км)
Погода в Galle (Шри Ланка) (1083 км)
Погода в Kanyakumari (Tamil Nadu, Индия) (1087 км)
Погода в Thiruvananthapuram Air (Kerala, Индия) (1101 км)
Погода в Thiruvananthapuram (Kerala, Индия) (1102 км)
Погода в Ratmalana (Шри Ланка) (1120 км)

Пояснения к столбцам:

Ветер - указаны скорость ветра в м/с - средняя за 10 мин, порывы в срок и между сроками (в фигурных скобках) и направление, откуда дует ветер: С - северный, СВ - северо-восточный, В - восточный, ЮВ - юго-восточный, Ю - южный, ЮЗ - юго-западный, З - западный, СЗ - северо-западный.
Видимость - горизонтальная дальность видимости в метрах или километрах. При видимости от 1 до 10 км при отсутствии осадков обычно наблюдается дымка, при ухудшении видимости до 1 км и менее - туман. В сухую погоду видимость может ухудшаться дымом, пылью или мглою.
Явления - указаны атмосферные явления, наблюдавшиеся в срок или в последний час перед сроком; фигурными скобками обозначены явления, наблюдавшиеся между сроками (за 1-3 часа до срока); квадратными скобками обозначены град или гололедные отложения с указанием их диаметра в мм.
Облачность - указаны через наклонную черту общая и нижняя облачность в баллах и высота нижней границы облаков в метрах; квадратными скобками обозначены формы облаков: Ci - перистые, Cs - перисто-слоистые, Cc - перисто-кучевые, Ac - высококучевые, As - высокослоистые, Sc - слоисто-кучевые, Ns - слоисто-дождевые, Cu - кучевые, Cb - кучево-дождевые. Подробнее классификацию облаков см. в Атласе облаков (PDF).
T - Температура воздуха - температура, измеренная на высоте 2 м над землей.
Td - Температура точки росы - температура, при понижении до которой содержащийся в воздухе водяной пар достигнет насыщения.
f - Относительная влажность воздуха - влажноcть воздуха, измеренная на высоте 2 м над землей.
Te - Эффективная температура - температура, которую ощущает одетый по сезону человек в тени. Характеристика душности погоды. При расчете учитывается влияние влажности воздуха и скорости ветра на теплоощущения человека.
Tes - Эффективная температура на солнце - температура, которую ощущает человек, с поправкой на солнечный нагрев. Характеристика знойности погоды. Зависит от высоты солнца над горизонтом, облачности и скорости ветра. Ночью, в пасмурную погоду, а также при ветре 12 м/с и более поправка равна нулю.
P - Атмосферное давление - приведенное к уровню моря атмосферное давление.
Po - Атмосферное давление - измеренное на уровне метеостанции атмосферное давление.
Tmin - Минимальная температура - минимум температуры воздуха на высоте 2 м над землей.
Tmax - Максимальная температура - максимум температуры воздуха на высоте 2 м над землей.
R - Количество осадков - Количество выпавших осадков за период времени, мм. При наведении курсора мыши на число - период времени, за который выпало указанное количество осадков.
R24 - Количество осадков - Количество выпавших осадков за 24 часа, мм.
S - Снежный покров - Высота снежного покрова, см. При наведении курсора мыши на число - состояние снежного покрова и степень покрытия местности в баллах.